Location: ????????
(60.4333°N, 46.4710°E)
Time: 19:55:00
(UTC+00:00)

Cosmos 841 Rocket - Pass Details

Date: 25 November 2020
Orbit: 747 x 771 km, 74.0° (Epoch: 16 January)

Event Time Altitude Azimuth Distance (km) Brightness Sun altitude
Rises 13:35:16 0° 195° (SSW) 3,223 7.4 -10.3°
Reaches altitude 10° 13:37:40 10° 192° (SSW) 2,297 6.5 -10.6°
Maximum altitude 13:42:46 58° 114° (ESE) 889 3.6 -11.2°
Enters shadow 13:47:33 12° 38° (NE) 2,181 5.3 -11.7°
